Time,TemperatureF,DewpointF,PressureIn,WindDirection,WindDirectionDegrees,WindSpeedMPH,WindSpeedGustMPH,Humidity,HourlyPrecipIn,Conditions,Clouds,dailyrainin,SoftwareType,DateUTC
2013-02-21 00:02:00,37.2,35.4,30.06,ESE,106,0.0,0.0,93,0.00,,,0.00,WeatherCatV1.11B39,2013-02-21 08:02:00,
2013-02-21 00:07:00,37.3,35.7,30.06,ESE,106,0.0,0.0,94,0.00,,,0.00,WeatherCatV1.11B39,2013-02-21 08:07:00,
2013-02-21 00:12:00,37.4,35.8,30.06,ESE,106,0.0,2.0,94,0.00,,,0.00,WeatherCatV1.11B39,2013-02-21 08:12:00,
2013-02-21 00:17:00,37.4,35.8,30.05,ESE,106,0.0,1.0,94,0.00,,,0.00,WeatherCatV1.11B39,2013-02-21 08:17:00,
2013-02-21 00:22:00,37.3,35.5,30.05,ESE,106,0.0,0.0,93,0.00,,,0.00,WeatherCatV1.11B39,2013-02-21 08:22:00,
2013-02-21 00:27:00,37.3,35.5,30.05,ESE,106,0.0,0.0,93,0.00,,,0.00,WeatherCatV1.11B39,2013-02-21 08:27:00,
2013-02-21 00:32:00,37.2,35.4,30.05,ESE,106,0.0,0.0,93,0.00,,,0.00,WeatherCatV1.11B39,2013-02-21 08:32:00,
2013-02-21 00:37:00,37.0,35.2,30.04,ESE,106,0.0,0.0,93,0.00,,,0.00,WeatherCatV1.11B39,2013-02-21 08:37:00,
2013-02-21 00:42:00,36.8,35.0,30.04,ESE,106,0.0,1.0,93,0.00,,,0.00,WeatherCatV1.11B39,2013-02-21 08:42:00,
2013-02-21 00:47:00,36.7,34.9,30.04,ESE,106,0.0,2.0,93,0.00,,,0.00,WeatherCatV1.11B39,2013-02-21 08:47:00,
2013-02-21 00:50:00,36.7,34.9,30.04,ESE,112,0.0,0.0,93,0.00,,,0.00,WeatherCatV1.11B39,2013-02-21 08:50:00,
2013-02-21 00:55:00,36.6,34.8,30.04,ESE,112,0.0,2.0,93,0.00,,,0.00,WeatherCatV1.11B39,2013-02-21 08:55:00,
2013-02-21 01:00:00,36.5,34.7,30.04,ESE,112,0.0,2.0,93,0.00,,,0.00,WeatherCatV1.11B39,2013-02-21 09:00:00,
2013-02-21 01:05:00,36.5,34.7,30.04,ESE,112,1.0,2.0,93,0.00,,,0.00,WeatherCatV1.11B39,2013-02-21 09:05:00,
2013-02-21 01:10:00,36.6,35.0,30.04,ESE,112,0.0,0.0,94,0.00,,,0.00,WeatherCatV1.11B39,2013-02-21 09:10:00,
2013-02-21 01:15:00,36.6,35.0,30.04,ESE,112,0.0,0.0,94,0.00,,,0.00,WeatherCatV1.11B39,2013-02-21 09:15:00,
2013-02-21 01:20:00,36.6,35.0,30.04,ESE,112,0.0,1.0,94,0.00,,,0.00,WeatherCatV1.11B39,2013-02-21 09:20:00,
2013-02-21 01:25:00,36.6,35.0,30.05,ESE,112,0.0,0.0,94,0.00,,,0.00,WeatherCatV1.11B39,2013-02-21 09:25:00,
2013-02-21 01:30:00,36.6,35.0,30.05,ESE,112,0.0,0.0,94,0.00,,,0.00,WeatherCatV1.11B39,2013-02-21 09:30:00,
2013-02-21 01:35:00,36.4,34.6,30.05,ESE,112,0.0,0.0,93,0.00,,,0.00,WeatherCatV1.11B39,2013-02-21 09:35:00,
2013-02-21 01:40:00,36.2,34.6,30.05,ESE,112,0.0,0.0,94,0.00,,,0.00,WeatherCatV1.11B39,2013-02-21 09:40:00,
2013-02-21 01:45:00,36.1,34.5,30.04,ESE,112,0.0,0.0,94,0.00,,,0.00,WeatherCatV1.11B39,2013-02-21 09:45:00,
2013-02-21 01:50:00,36.0,34.2,30.04,ESE,112,0.0,0.0,93,0.00,,,0.00,WeatherCatV1.11B39,2013-02-21 09:50:00,
2013-02-21 01:55:00,35.8,34.0,30.04,ESE,112,0.0,0.0,93,0.00,,,0.00,WeatherCatV1.11B39,2013-02-21 09:55:00,
2013-02-21 02:00:00,35.7,34.1,30.05,ESE,112,0.0,0.0,94,0.00,,,0.00,WeatherCatV1.11B39,2013-02-21 10:00:00,
2013-02-21 02:05:00,35.6,34.1,30.05,ESE,112,0.0,0.0,94,0.00,,,0.00,WeatherCatV1.11B39,2013-02-21 10:05:00,
2013-02-21 02:10:00,35.6,34.1,30.05,ESE,112,0.0,0.0,94,0.00,,,0.00,WeatherCatV1.11B39,2013-02-21 10:10:00,
2013-02-21 02:15:00,35.5,33.9,30.05,ESE,112,0.0,0.0,94,0.00,,,0.00,WeatherCatV1.11B39,2013-02-21 10:15:00,
2013-02-21 02:20:00,35.4,33.9,30.05,ESE,112,0.0,0.0,94,0.00,,,0.00,WeatherCatV1.11B39,2013-02-21 10:20:00,
2013-02-21 02:25:00,35.3,33.7,30.05,ESE,112,0.0,0.0,94,0.00,,,0.00,WeatherCatV1.11B39,2013-02-21 10:25:00,
2013-02-21 02:30:00,35.3,33.7,30.04,ESE,112,0.0,0.0,94,0.00,,,0.00,WeatherCatV1.11B39,2013-02-21 10:30:00,
2013-02-21 02:35:00,35.2,33.7,30.04,ESE,112,0.0,0.0,94,0.00,,,0.00,WeatherCatV1.11B39,2013-02-21 10:35:00,
2013-02-21 02:40:00,35.1,33.5,30.04,ESE,112,0.0,0.0,94,0.00,,,0.00,WeatherCatV1.11B39,2013-02-21 10:40:00,
2013-02-21 02:45:00,35.0,33.5,30.04,ESE,112,0.0,0.0,94,0.00,,,0.00,WeatherCatV1.11B39,2013-02-21 10:45:00,
2013-02-21 02:50:00,34.9,33.3,30.03,ESE,112,0.0,0.0,94,0.00,,,0.00,WeatherCatV1.11B39,2013-02-21 10:50:00,
2013-02-21 02:55:00,34.9,33.3,30.03,ESE,112,0.0,0.0,94,0.00,,,0.00,WeatherCatV1.11B39,2013-02-21 10:55:00,
2013-02-21 03:00:00,34.9,33.6,30.03,ESE,112,0.0,0.0,95,0.00,,,0.00,WeatherCatV1.11B39,2013-02-21 11:00:00,
2013-02-21 03:05:00,35.0,33.7,30.03,ESE,112,0.0,0.0,95,0.00,,,0.00,WeatherCatV1.11B39,2013-02-21 11:05:00,
2013-02-21 03:10:00,35.0,33.7,30.03,ESE,112,0.0,0.0,95,0.00,,,0.00,WeatherCatV1.11B39,2013-02-21 11:10:00,
2013-02-21 03:15:00,35.0,33.7,30.03,ESE,112,0.0,0.0,95,0.00,,,0.00,WeatherCatV1.11B39,2013-02-21 11:15:00,
2013-02-21 03:20:00,35.0,33.7,30.03,ESE,112,0.0,0.0,95,0.00,,,0.00,WeatherCatV1.11B39,2013-02-21 11:20:00,
2013-02-21 03:25:00,34.9,33.6,30.03,ESE,112,0.0,0.0,95,0.00,,,0.00,WeatherCatV1.11B39,2013-02-21 11:25:00,
2013-02-21 03:30:00,34.8,33.5,30.03,ESE,112,0.0,0.0,95,0.00,,,0.00,WeatherCatV1.11B39,2013-02-21 11:30:00,
2013-02-21 03:35:00,34.7,33.4,30.03,ESE,112,0.0,0.0,95,0.00,,,0.00,WeatherCatV1.11B39,2013-02-21 11:35:00,
2013-02-21 03:40:00,34.6,33.3,30.03,ESE,112,0.0,0.0,95,0.00,,,0.00,WeatherCatV1.11B39,2013-02-21 11:40:00,
2013-02-21 03:45:00,34.5,33.2,30.03,ESE,112,0.0,0.0,95,0.00,,,0.00,WeatherCatV1.11B39,2013-02-21 11:45:00,
2013-02-21 03:50:00,34.5,33.2,30.03,ESE,112,0.0,0.0,95,0.00,,,0.00,WeatherCatV1.11B39,2013-02-21 11:50:00,
2013-02-21 03:55:00,34.5,33.2,30.02,ESE,112,0.0,0.0,95,0.00,,,0.00,WeatherCatV1.11B39,2013-02-21 11:55:00,
2013-02-21 04:00:00,34.6,33.3,30.02,ESE,112,0.0,0.0,95,0.00,,,0.00,WeatherCatV1.11B39,2013-02-21 12:00:00,
2013-02-21 04:05:00,34.7,33.4,30.02,ESE,112,0.0,0.0,95,0.00,,,0.00,WeatherCatV1.11B39,2013-02-21 12:05:00,
2013-02-21 04:10:00,34.8,33.5,30.01,ESE,112,0.0,0.0,95,0.00,,,0.00,WeatherCatV1.11B39,2013-02-21 12:10:00,
2013-02-21 04:15:00,34.9,33.6,30.02,ESE,112,0.0,0.0,95,0.00,,,0.00,WeatherCatV1.11B39,2013-02-21 12:15:00,
2013-02-21 04:20:00,35.1,33.8,30.02,ESE,112,0.0,0.0,95,0.00,,,0.00,WeatherCatV1.11B39,2013-02-21 12:20:00,
2013-02-21 04:25:00,35.1,33.8,30.01,ESE,112,0.0,0.0,95,0.00,,,0.00,WeatherCatV1.11B39,2013-02-21 12:25:00,
2013-02-21 04:30:00,35.0,33.7,30.01,ESE,112,0.0,0.0,95,0.00,,,0.00,WeatherCatV1.11B39,2013-02-21 12:30:00,
2013-02-21 04:35:00,34.9,33.6,30.01,ESE,112,0.0,0.0,95,0.00,,,0.00,WeatherCatV1.11B39,2013-02-21 12:35:00,
2013-02-21 04:40:00,35.0,33.7,30.01,ESE,112,0.0,0.0,95,0.00,,,0.00,WeatherCatV1.11B39,2013-02-21 12:40:00,
2013-02-21 04:45:00,35.0,33.7,30.01,ESE,112,0.0,0.0,95,0.00,,,0.00,WeatherCatV1.11B39,2013-02-21 12:45:00,
2013-02-21 04:50:00,35.0,33.7,30.02,ESE,112,0.0,0.0,95,0.00,,,0.00,WeatherCatV1.11B39,2013-02-21 12:50:00,
2013-02-21 04:55:00,34.9,33.6,30.02,ESE,112,0.0,0.0,95,0.00,,,0.00,WeatherCatV1.11B39,2013-02-21 12:55:00,
2013-02-21 05:00:00,34.9,33.6,30.02,ESE,112,0.0,0.0,95,0.00,,,0.00,WeatherCatV1.11B39,2013-02-21 13:00:00,
2013-02-21 05:05:00,34.8,33.5,30.02,ESE,112,0.0,0.0,95,0.00,,,0.00,WeatherCatV1.11B39,2013-02-21 13:05:00,
2013-02-21 05:10:00,34.8,33.5,30.02,ESE,112,0.0,0.0,95,0.00,,,0.00,WeatherCatV1.11B39,2013-02-21 13:10:00,
2013-02-21 05:15:00,34.7,33.4,30.02,ESE,112,0.0,0.0,95,0.00,,,0.00,WeatherCatV1.11B39,2013-02-21 13:15:00,
2013-02-21 05:20:00,34.8,33.5,30.02,ESE,112,0.0,0.0,95,0.00,,,0.00,WeatherCatV1.11B39,2013-02-21 13:20:00,
2013-02-21 05:25:00,34.8,33.5,30.02,ESE,112,0.0,0.0,95,0.00,,,0.00,WeatherCatV1.11B39,2013-02-21 13:25:00,
2013-02-21 05:30:00,34.8,33.5,30.02,ESE,112,0.0,0.0,95,0.00,,,0.00,WeatherCatV1.11B39,2013-02-21 13:30:00,
2013-02-21 05:35:00,34.8,33.5,30.02,ESE,112,0.0,0.0,95,0.00,,,0.00,WeatherCatV1.11B39,2013-02-21 13:35:00,
2013-02-21 05:40:00,34.8,33.5,30.02,ESE,112,0.0,0.0,95,0.00,,,0.00,WeatherCatV1.11B39,2013-02-21 13:40:00,
2013-02-21 05:45:00,34.7,33.4,30.01,ESE,112,0.0,0.0,95,0.00,,,0.00,WeatherCatV1.11B39,2013-02-21 13:45:00,
2013-02-21 05:50:00,34.5,33.2,30.02,ESE,112,0.0,0.0,95,0.00,,,0.00,WeatherCatV1.11B39,2013-02-21 13:50:00,
2013-02-21 05:55:00,34.3,33.0,30.02,ESE,112,0.0,0.0,95,0.00,,,0.00,WeatherCatV1.11B39,2013-02-21 13:55:00,
2013-02-21 06:00:00,34.1,32.8,30.03,ESE,112,0.0,0.0,95,0.00,,,0.00,WeatherCatV1.11B39,2013-02-21 14:00:00,
2013-02-21 06:05:00,34.1,32.8,30.03,ESE,112,0.0,0.0,95,0.00,,,0.00,WeatherCatV1.11B39,2013-02-21 14:05:00,
2013-02-21 06:10:00,34.4,33.4,30.03,ESE,112,0.0,0.0,96,0.00,,,0.00,WeatherCatV1.11B39,2013-02-21 14:10:00,
2013-02-21 06:15:00,34.4,33.1,30.03,ESE,112,0.0,0.0,95,0.00,,,0.00,WeatherCatV1.11B39,2013-02-21 14:15:00,
2013-02-21 06:20:00,34.5,33.5,30.04,ESE,112,0.0,0.0,96,0.00,,,0.00,WeatherCatV1.11B39,2013-02-21 14:20:00,
2013-02-21 06:25:00,34.7,33.7,30.04,ESE,112,0.0,0.0,96,0.00,,,0.00,WeatherCatV1.11B39,2013-02-21 14:25:00,
2013-02-21 06:30:00,34.7,33.7,30.04,ESE,112,0.0,0.0,96,0.00,,,0.00,WeatherCatV1.11B39,2013-02-21 14:30:00,
2013-02-21 06:35:00,34.7,33.7,30.04,ESE,112,0.0,0.0,96,0.00,,,0.00,WeatherCatV1.11B39,2013-02-21 14:35:00,
2013-02-21 06:40:00,34.8,33.8,30.05,ESE,112,0.0,0.0,96,0.00,,,0.00,WeatherCatV1.11B39,2013-02-21 14:40:00,
2013-02-21 06:45:00,34.9,33.9,30.04,ESE,112,0.0,0.0,96,0.00,,,0.00,WeatherCatV1.11B39,2013-02-21 14:45:00,
2013-02-21 06:50:00,34.8,33.8,30.04,ESE,112,0.0,0.0,96,0.00,,,0.00,WeatherCatV1.11B39,2013-02-21 14:50:00,
2013-02-21 06:55:00,34.8,33.8,30.04,ESE,112,0.0,0.0,96,0.00,,,0.00,WeatherCatV1.11B39,2013-02-21 14:55:00,
2013-02-21 07:00:00,34.7,33.7,30.04,ESE,112,0.0,0.0,96,0.00,,,0.00,WeatherCatV1.11B39,2013-02-21 15:00:00,
2013-02-21 07:05:00,34.6,33.6,30.04,ESE,112,0.0,0.0,96,0.00,,,0.00,WeatherCatV1.11B39,2013-02-21 15:05:00,
2013-02-21 07:10:00,34.7,33.7,30.04,ESE,112,0.0,0.0,96,0.00,,,0.00,WeatherCatV1.11B39,2013-02-21 15:10:00,
2013-02-21 07:15:00,34.7,33.7,30.05,ESE,112,0.0,0.0,96,0.00,,,0.00,WeatherCatV1.11B39,2013-02-21 15:15:00,
2013-02-21 07:20:00,34.8,33.8,30.05,ESE,112,0.0,1.0,96,0.00,,,0.00,WeatherCatV1.11B39,2013-02-21 15:20:00,
2013-02-21 07:25:00,34.9,33.9,30.06,ESE,112,0.0,0.0,96,0.00,,,0.00,WeatherCatV1.11B39,2013-02-21 15:25:00,
2013-02-21 07:30:00,34.8,33.8,30.05,ESE,112,0.0,0.0,96,0.00,,,0.00,WeatherCatV1.11B39,2013-02-21 15:30:00,
2013-02-21 07:35:00,34.8,33.8,30.06,ESE,112,0.0,0.0,96,0.00,,,0.00,WeatherCatV1.11B39,2013-02-21 15:35:00,
2013-02-21 07:40:00,34.8,33.8,30.05,ESE,112,0.0,0.0,96,0.00,,,0.00,WeatherCatV1.11B39,2013-02-21 15:40:00,
2013-02-21 07:45:00,34.9,33.9,30.06,ESE,112,0.0,0.0,96,0.00,,,0.00,WeatherCatV1.11B39,2013-02-21 15:45:00,
2013-02-21 07:50:00,35.0,34.0,30.06,ESE,112,0.0,0.0,96,0.00,,,0.00,WeatherCatV1.11B39,2013-02-21 15:50:00,
2013-02-21 07:55:00,35.2,34.2,30.06,ESE,112,0.0,0.0,96,0.00,,,0.00,WeatherCatV1.11B39,2013-02-21 15:55:00,
2013-02-21 08:00:00,35.4,34.4,30.06,ESE,112,0.0,0.0,96,0.00,,,0.00,WeatherCatV1.11B39,2013-02-21 16:00:00,
2013-02-21 08:05:00,35.7,34.7,30.06,ESE,112,0.0,0.0,96,0.00,,,0.00,WeatherCatV1.11B39,2013-02-21 16:05:00,
2013-02-21 08:10:00,36.0,35.0,30.07,ESE,112,0.0,0.0,96,0.00,,,0.00,WeatherCatV1.11B39,2013-02-21 16:10:00,
2013-02-21 08:15:00,36.3,35.3,30.07,ESE,112,0.0,0.0,96,0.00,,,0.00,WeatherCatV1.11B39,2013-02-21 16:15:00,
2013-02-21 08:20:00,36.5,35.5,30.07,South,180,1.0,2.0,96,0.00,,,0.00,WeatherCatV1.11B39,2013-02-21 16:20:00,
2013-02-21 08:25:00,36.6,35.8,30.07,South,180,0.0,0.0,97,0.00,,,0.00,WeatherCatV1.11B39,2013-02-21 16:25:00,
2013-02-21 08:30:00,36.8,35.8,30.06,South,180,0.0,1.0,96,0.00,,,0.00,WeatherCatV1.11B39,2013-02-21 16:30:00,
2013-02-21 08:35:00,37.1,36.3,30.06,South,180,0.0,1.0,97,0.00,,,0.00,WeatherCatV1.11B39,2013-02-21 16:35:00,
2013-02-21 08:40:00,37.7,36.9,30.06,South,180,1.0,2.0,97,0.00,,,0.00,WeatherCatV1.11B39,2013-02-21 16:40:00,
2013-02-21 08:45:00,38.1,37.3,30.07,South,180,1.0,2.0,97,0.00,,,0.00,WeatherCatV1.11B39,2013-02-21 16:45:00,
2013-02-21 08:50:00,38.5,37.7,30.07,South,180,0.0,1.0,97,0.00,,,0.00,WeatherCatV1.11B39,2013-02-21 16:50:00,
2013-02-21 08:55:00,38.8,38.0,30.07,South,180,0.0,0.0,97,0.00,,,0.00,WeatherCatV1.11B39,2013-02-21 16:55:00,
2013-02-21 09:00:00,39.2,38.4,30.07,South,180,0.0,1.0,97,0.00,,,0.00,WeatherCatV1.11B39,2013-02-21 17:00:00,
2013-02-21 09:05:00,39.6,38.8,30.08,South,180,0.0,1.0,97,0.00,,,0.00,WeatherCatV1.11B39,2013-02-21 17:05:00,
2013-02-21 09:10:00,39.9,39.1,30.08,South,180,0.0,0.0,97,0.00,,,0.00,WeatherCatV1.11B39,2013-02-21 17:10:00,
2013-02-21 09:15:00,40.1,39.3,30.08,South,180,0.0,0.0,97,0.00,,,0.00,WeatherCatV1.11B39,2013-02-21 17:15:00,
2013-02-21 09:20:00,40.5,39.7,30.09,SSW,202,0.0,3.0,97,0.00,,,0.00,WeatherCatV1.11B39,2013-02-21 17:20:00,
2013-02-21 09:25:00,41.0,40.2,30.08,WSW,248,0.0,0.0,97,0.00,,,0.00,WeatherCatV1.11B39,2013-02-21 17:25:00,
2013-02-21 09:30:00,41.3,40.5,30.08,WSW,248,1.0,3.0,97,0.00,,,0.00,WeatherCatV1.11B39,2013-02-21 17:30:00,
2013-02-21 09:35:00,41.6,40.8,30.08,WSW,248,0.0,1.0,97,0.00,,,0.00,WeatherCatV1.11B39,2013-02-21 17:35:00,
2013-02-21 09:40:00,42.3,41.5,30.08,WSW,248,0.0,1.0,97,0.00,,,0.00,WeatherCatV1.11B39,2013-02-21 17:40:00,
2013-02-21 09:45:00,42.9,42.1,30.08,WSW,248,0.0,0.0,97,0.00,,,0.00,WeatherCatV1.11B39,2013-02-21 17:45:00,
2013-02-21 09:50:00,43.8,42.7,30.08,WSW,248,0.0,0.0,96,0.00,,,0.00,WeatherCatV1.11B39,2013-02-21 17:50:00,
2013-02-21 09:55:00,44.6,43.5,30.09,WSW,248,1.0,2.0,96,0.00,,,0.00,WeatherCatV1.11B39,2013-02-21 17:55:00,
2013-02-21 10:00:00,45.0,43.4,30.09,WSW,248,0.0,2.0,94,0.00,,,0.00,WeatherCatV1.11B39,2013-02-21 18:00:00,
2013-02-21 10:05:00,45.8,43.3,30.09,WSW,248,0.0,1.0,91,0.00,,,0.00,WeatherCatV1.11B39,2013-02-21 18:05:00,
2013-02-21 10:10:00,46.4,43.0,30.09,WSW,248,0.0,1.0,88,0.00,,,0.00,WeatherCatV1.11B39,2013-02-21 18:10:00,
2013-02-21 10:15:00,46.7,42.4,30.09,WSW,248,0.0,1.0,85,0.00,,,0.00,WeatherCatV1.11B39,2013-02-21 18:15:00,
2013-02-21 10:20:00,47.4,42.2,30.09,WSW,248,0.0,1.0,82,0.00,,,0.00,WeatherCatV1.11B39,2013-02-21 18:20:00,
2013-02-21 10:25:00,48.0,42.1,30.09,WSW,248,0.0,1.0,80,0.00,,,0.00,WeatherCatV1.11B39,2013-02-21 18:25:00,
2013-02-21 10:30:00,48.8,42.6,30.09,WSW,248,1.0,2.0,79,0.00,,,0.00,WeatherCatV1.11B39,2013-02-21 18:30:00,
2013-02-21 10:35:00,49.1,42.2,30.09,WSW,248,0.0,1.0,77,0.00,,,0.00,WeatherCatV1.11B39,2013-02-21 18:35:00,
2013-02-21 10:40:00,49.6,41.7,30.10,WSW,248,0.0,1.0,74,0.00,,,0.00,WeatherCatV1.11B39,2013-02-21 18:40:00,
2013-02-21 10:45:00,50.4,41.4,30.10,WSW,248,0.0,1.0,71,0.00,,,0.00,WeatherCatV1.11B39,2013-02-21 18:45:00,
2013-02-21 10:50:00,50.9,40.3,30.10,WSW,248,1.0,4.0,67,0.00,,,0.00,WeatherCatV1.11B39,2013-02-21 18:50:00,
2013-02-21 10:55:00,51.4,40.8,30.10,WSW,248,0.0,0.0,67,0.00,,,0.00,WeatherCatV1.11B39,2013-02-21 18:55:00,
2013-02-21 11:00:00,51.6,40.6,30.09,WSW,248,0.0,1.0,66,0.00,,,0.00,WeatherCatV1.11B39,2013-02-21 19:00:00,
2013-02-21 11:05:00,51.7,40.7,30.10,WSW,248,1.0,2.0,66,0.00,,,0.00,WeatherCatV1.11B39,2013-02-21 19:05:00,
2013-02-21 11:10:00,51.8,40.4,30.10,WSW,248,0.0,1.0,65,0.00,,,0.00,WeatherCatV1.11B39,2013-02-21 19:10:00,
2013-02-21 11:15:00,52.1,41.5,30.10,WSW,248,0.0,3.0,67,0.00,,,0.00,WeatherCatV1.11B39,2013-02-21 19:15:00,
2013-02-21 11:20:00,52.4,41.4,30.09,WSW,248,0.0,1.0,66,0.00,,,0.00,WeatherCatV1.11B39,2013-02-21 19:20:00,
2013-02-21 11:25:00,52.5,41.1,30.09,West,270,0.0,0.0,65,0.00,,,0.00,WeatherCatV1.11B39,2013-02-21 19:25:00,
2013-02-21 11:30:00,52.9,40.7,30.09,NE,45,2.0,3.0,63,0.00,,,0.00,WeatherCatV1.11B39,2013-02-21 19:30:00,
2013-02-21 11:35:00,53.4,41.5,30.10,South,180,1.0,4.0,64,0.00,,,0.00,WeatherCatV1.11B39,2013-02-21 19:35:00,
2013-02-21 11:40:00,53.9,42.0,30.10,WNW,292,0.0,1.0,64,0.00,,,0.00,WeatherCatV1.11B39,2013-02-21 19:40:00,
2013-02-21 11:45:00,54.2,43.1,30.10,NW,315,2.0,4.0,66,0.00,,,0.00,WeatherCatV1.11B39,2013-02-21 19:45:00,
2013-02-21 11:50:00,54.0,41.3,30.10,NW,315,0.0,0.0,62,0.00,,,0.00,WeatherCatV1.11B39,2013-02-21 19:50:00,
2013-02-21 11:55:00,53.8,41.1,30.09,NNW,338,3.0,5.0,62,0.00,,,0.00,WeatherCatV1.11B39,2013-02-21 19:55:00,
2013-02-21 12:00:00,53.5,41.2,30.10,NNW,338,1.0,2.0,63,0.00,,,0.00,WeatherCatV1.11B39,2013-02-21 20:00:00,
2013-02-21 12:05:00,53.4,41.5,30.10,ESE,112,1.0,2.0,64,0.00,,,0.00,WeatherCatV1.11B39,2013-02-21 20:05:00,
2013-02-21 12:10:00,53.4,41.1,30.09,NE,45,2.0,3.0,63,0.00,,,0.00,WeatherCatV1.11B39,2013-02-21 20:10:00,
2013-02-21 12:15:00,53.4,41.1,30.09,NW,315,1.0,5.0,63,0.00,,,0.00,WeatherCatV1.11B39,2013-02-21 20:15:00,
2013-02-21 12:20:00,53.2,40.9,30.09,NW,315,0.0,2.0,63,0.00,,,0.00,WeatherCatV1.11B39,2013-02-21 20:20:00,
2013-02-21 12:25:00,53.3,41.4,30.09,WSW,248,2.0,5.0,64,0.00,,,0.00,WeatherCatV1.11B39,2013-02-21 20:25:00,
2013-02-21 12:30:00,53.5,41.2,30.08,North,0,2.0,5.0,63,0.00,,,0.00,WeatherCatV1.11B39,2013-02-21 20:30:00,
2013-02-21 12:35:00,53.5,41.2,30.08,North,0,1.0,3.0,63,0.00,,,0.00,WeatherCatV1.11B39,2013-02-21 20:35:00,
2013-02-21 12:40:00,53.6,40.9,30.07,North,0,0.0,1.0,62,0.00,,,0.00,WeatherCatV1.11B39,2013-02-21 20:40:00,
2013-02-21 12:45:00,54.2,41.1,30.07,SSW,202,1.0,2.0,61,0.00,,,0.00,WeatherCatV1.11B39,2013-02-21 20:45:00,
2013-02-21 12:50:00,54.4,42.5,30.08,WSW,248,2.0,5.0,64,0.00,,,0.00,WeatherCatV1.11B39,2013-02-21 20:50:00,
2013-02-21 12:55:00,54.8,40.7,30.08,WSW,248,1.0,2.0,59,0.00,,,0.00,WeatherCatV1.11B39,2013-02-21 20:55:00,
2013-02-21 13:00:00,54.8,40.3,30.08,WSW,248,1.0,2.0,58,0.00,,,0.00,WeatherCatV1.11B39,2013-02-21 21:00:00,
2013-02-21 13:05:00,54.6,40.6,30.08,WSW,248,0.0,0.0,59,0.00,,,0.00,WeatherCatV1.11B39,2013-02-21 21:05:00,
2013-02-21 13:10:00,54.7,40.7,30.07,WSW,248,0.0,0.0,59,0.00,,,0.00,WeatherCatV1.11B39,2013-02-21 21:10:00,
2013-02-21 13:15:00,54.7,41.5,30.07,WSW,248,0.0,1.0,61,0.00,,,0.00,WeatherCatV1.11B39,2013-02-21 21:15:00,
2013-02-21 13:20:00,54.6,41.0,30.07,NW,315,1.0,3.0,60,0.00,,,0.00,WeatherCatV1.11B39,2013-02-21 21:20:00,
2013-02-21 13:25:00,54.3,41.1,30.07,NW,315,0.0,0.0,61,0.00,,,0.00,WeatherCatV1.11B39,2013-02-21 21:25:00,
2013-02-21 13:30:00,54.3,41.1,30.07,NW,315,0.0,1.0,61,0.00,,,0.00,WeatherCatV1.11B39,2013-02-21 21:30:00,
2013-02-21 13:35:00,54.1,40.5,30.06,NE,45,2.0,3.0,60,0.00,,,0.00,WeatherCatV1.11B39,2013-02-21 21:35:00,
2013-02-21 13:40:00,54.1,40.1,30.06,North,0,1.0,2.0,59,0.00,,,0.00,WeatherCatV1.11B39,2013-02-21 21:40:00,
2013-02-21 13:45:00,54.5,40.9,30.07,North,0,0.0,1.0,60,0.00,,,0.00,WeatherCatV1.11B39,2013-02-21 21:45:00,
2013-02-21 13:50:00,54.9,40.0,30.07,North,0,0.0,0.0,57,0.00,,,0.00,WeatherCatV1.11B39,2013-02-21 21:50:00,
2013-02-21 13:55:00,55.1,40.6,30.07,WSW,248,0.0,1.0,58,0.00,,,0.00,WeatherCatV1.11B39,2013-02-21 21:55:00,
2013-02-21 14:00:00,55.2,41.1,30.07,WSW,248,1.0,2.0,59,0.00,,,0.00,WeatherCatV1.11B39,2013-02-21 22:00:00,
2013-02-21 14:05:00,55.1,41.0,30.07,WSW,248,0.0,1.0,59,0.00,,,0.00,WeatherCatV1.11B39,2013-02-21 22:05:00,
2013-02-21 14:10:00,54.9,40.4,30.07,WSW,248,0.0,1.0,58,0.00,,,0.00,WeatherCatV1.11B39,2013-02-21 22:10:00,
2013-02-21 14:15:00,54.7,40.2,30.07,WNW,292,0.0,2.0,58,0.00,,,0.00,WeatherCatV1.11B39,2013-02-21 22:15:00,
2013-02-21 14:20:00,54.5,40.5,30.07,WNW,292,0.0,2.0,59,0.00,,,0.00,WeatherCatV1.11B39,2013-02-21 22:20:00,
2013-02-21 14:25:00,54.4,39.9,30.07,WNW,292,0.0,2.0,58,0.00,,,0.00,WeatherCatV1.11B39,2013-02-21 22:25:00,
2013-02-21 14:30:00,54.2,39.7,30.07,NW,315,2.0,5.0,58,0.00,,,0.00,WeatherCatV1.11B39,2013-02-21 22:30:00,
2013-02-21 14:35:00,54.1,40.1,30.07,WSW,248,3.0,5.0,59,0.00,,,0.00,WeatherCatV1.11B39,2013-02-21 22:35:00,
2013-02-21 14:40:00,54.3,40.3,30.07,WSW,248,2.0,4.0,59,0.00,,,0.00,WeatherCatV1.11B39,2013-02-21 22:40:00,
2013-02-21 14:45:00,54.8,41.2,30.07,WSW,248,1.0,2.0,60,0.00,,,0.00,WeatherCatV1.11B39,2013-02-21 22:45:00,
2013-02-21 14:50:00,55.1,41.0,30.07,WNW,292,0.0,1.0,59,0.00,,,0.00,WeatherCatV1.11B39,2013-02-21 22:50:00,
2013-02-21 14:55:00,55.5,40.5,30.07,WNW,292,1.0,4.0,57,0.00,,,0.00,WeatherCatV1.11B39,2013-02-21 22:55:00,
2013-02-21 15:00:00,56.1,41.1,30.07,West,270,1.0,3.0,57,0.00,,,0.00,WeatherCatV1.11B39,2013-02-21 23:00:00,
2013-02-21 15:05:00,56.7,40.7,30.07,North,0,5.0,7.0,55,0.00,,,0.00,WeatherCatV1.11B39,2013-02-21 23:05:00,
2013-02-21 15:10:00,55.8,38.9,30.06,NNE,22,3.0,4.0,53,0.00,,,0.00,WeatherCatV1.11B39,2013-02-21 23:10:00,
2013-02-21 15:15:00,55.1,39.2,30.07,North,0,6.0,10.0,55,0.00,,,0.00,WeatherCatV1.11B39,2013-02-21 23:15:00,
2013-02-21 15:20:00,54.3,39.4,30.07,NW,315,2.0,3.0,57,0.00,,,0.00,WeatherCatV1.11B39,2013-02-21 23:20:00,
2013-02-21 15:25:00,54.1,39.2,30.07,NNW,338,3.0,6.0,57,0.00,,,0.00,WeatherCatV1.11B39,2013-02-21 23:25:00,
2013-02-21 15:30:00,53.7,38.4,30.07,NNW,338,3.0,4.0,56,0.00,,,0.00,WeatherCatV1.11B39,2013-02-21 23:30:00,
2013-02-21 15:35:00,53.5,39.1,30.07,NNW,338,1.0,3.0,58,0.00,,,0.00,WeatherCatV1.11B39,2013-02-21 23:35:00,
2013-02-21 15:40:00,53.4,38.6,30.07,NNW,338,0.0,1.0,57,0.00,,,0.00,WeatherCatV1.11B39,2013-02-21 23:40:00,
2013-02-21 15:45:00,53.5,40.0,30.07,NNW,338,0.0,2.0,60,0.00,,,0.00,WeatherCatV1.11B39,2013-02-21 23:45:00,
2013-02-21 15:50:00,53.7,40.2,30.07,NW,315,0.0,1.0,60,0.00,,,0.00,WeatherCatV1.11B39,2013-02-21 23:50:00,
2013-02-21 15:55:00,53.9,39.5,30.07,North,0,5.0,9.0,58,0.00,,,0.00,WeatherCatV1.11B39,2013-02-21 23:55:00,
2013-02-21 16:00:00,54.1,39.7,30.07,North,0,3.0,5.0,58,0.00,,,0.00,WeatherCatV1.11B39,2013-02-22 00:00:00,
2013-02-21 16:05:00,54.4,39.9,30.07,NNW,338,3.0,5.0,58,0.00,,,0.00,WeatherCatV1.11B39,2013-02-22 00:05:00,
2013-02-21 16:10:00,54.6,39.2,30.07,NNW,338,3.0,5.0,56,0.00,,,0.00,WeatherCatV1.11B39,2013-02-22 00:10:00,
2013-02-21 16:15:00,54.7,39.3,30.07,NNW,338,3.0,7.0,56,0.00,,,0.00,WeatherCatV1.11B39,2013-02-22 00:15:00,
2013-02-21 16:20:00,54.6,38.8,30.07,North,0,2.0,4.0,55,0.00,,,0.00,WeatherCatV1.11B39,2013-02-22 00:20:00,
2013-02-21 16:25:00,54.5,39.1,30.07,North,0,1.0,2.0,56,0.00,,,0.00,WeatherCatV1.11B39,2013-02-22 00:25:00,
2013-02-21 16:30:00,54.3,39.4,30.07,North,0,1.0,3.0,57,0.00,,,0.00,WeatherCatV1.11B39,2013-02-22 00:30:00,
2013-02-21 16:35:00,54.2,39.3,30.07,North,0,2.0,3.0,57,0.00,,,0.00,WeatherCatV1.11B39,2013-02-22 00:35:00,
2013-02-21 16:40:00,54.0,39.1,30.07,North,0,2.0,3.0,57,0.00,,,0.00,WeatherCatV1.11B39,2013-02-22 00:40:00,
2013-02-21 16:45:00,53.7,39.3,30.07,North,0,1.0,2.0,58,0.00,,,0.00,WeatherCatV1.11B39,2013-02-22 00:45:00,
2013-02-21 16:50:00,53.6,39.2,30.07,North,0,1.0,2.0,58,0.00,,,0.00,WeatherCatV1.11B39,2013-02-22 00:50:00,
2013-02-21 16:55:00,53.6,39.2,30.07,North,0,1.0,2.0,58,0.00,,,0.00,WeatherCatV1.11B39,2013-02-22 00:55:00,
2013-02-21 17:00:00,53.5,39.1,30.07,North,0,0.0,1.0,58,0.00,,,0.00,WeatherCatV1.11B39,2013-02-22 01:00:00,
2013-02-21 17:05:00,53.4,39.4,30.08,North,0,0.0,0.0,59,0.00,,,0.00,WeatherCatV1.11B39,2013-02-22 01:05:00,
2013-02-21 17:10:00,53.2,39.3,30.08,North,0,0.0,1.0,59,0.00,,,0.00,WeatherCatV1.11B39,2013-02-22 01:10:00,
2013-02-21 17:15:00,53.0,39.5,30.08,North,0,0.0,0.0,60,0.00,,,0.00,WeatherCatV1.11B39,2013-02-22 01:15:00,
2013-02-21 17:20:00,52.9,39.4,30.08,North,0,0.0,1.0,60,0.00,,,0.00,WeatherCatV1.11B39,2013-02-22 01:20:00,
2013-02-21 17:25:00,52.6,39.1,30.08,North,0,0.0,1.0,60,0.00,,,0.00,WeatherCatV1.11B39,2013-02-22 01:25:00,
2013-02-21 17:30:00,52.4,39.3,30.08,North,0,0.0,1.0,61,0.00,,,0.00,WeatherCatV1.11B39,2013-02-22 01:30:00,
2013-02-21 17:35:00,52.2,39.2,30.08,North,0,0.0,0.0,61,0.00,,,0.00,WeatherCatV1.11B39,2013-02-22 01:35:00,
2013-02-21 17:40:00,51.9,39.3,30.09,North,0,0.0,0.0,62,0.00,,,0.00,WeatherCatV1.11B39,2013-02-22 01:40:00,
2013-02-21 17:45:00,51.7,39.5,30.09,North,0,0.0,0.0,63,0.00,,,0.00,WeatherCatV1.11B39,2013-02-22 01:45:00,
2013-02-21 17:50:00,51.5,39.7,30.09,North,0,0.0,0.0,64,0.00,,,0.00,WeatherCatV1.11B39,2013-02-22 01:50:00,
2013-02-21 17:55:00,51.2,39.8,30.10,North,0,0.0,0.0,65,0.00,,,0.00,WeatherCatV1.11B39,2013-02-22 01:55:00,
2013-02-21 18:00:00,50.9,39.6,30.10,North,0,0.0,0.0,65,0.00,,,0.00,WeatherCatV1.11B39,2013-02-22 02:00:00,
2013-02-21 18:05:00,50.6,39.7,30.10,North,0,0.0,0.0,66,0.00,,,0.00,WeatherCatV1.11B39,2013-02-22 02:05:00,
2013-02-21 18:10:00,50.3,39.4,30.10,North,0,0.0,0.0,66,0.00,,,0.00,WeatherCatV1.11B39,2013-02-22 02:10:00,
2013-02-21 18:15:00,49.9,39.0,30.11,North,0,0.0,0.0,66,0.00,,,0.00,WeatherCatV1.11B39,2013-02-22 02:15:00,
2013-02-21 18:20:00,49.4,38.9,30.11,North,0,0.0,0.0,67,0.00,,,0.00,WeatherCatV1.11B39,2013-02-22 02:20:00,
2013-02-21 18:25:00,48.9,38.4,30.11,North,0,0.0,0.0,67,0.00,,,0.00,WeatherCatV1.11B39,2013-02-22 02:25:00,
2013-02-21 18:30:00,48.5,38.0,30.11,North,0,0.0,0.0,67,0.00,,,0.00,WeatherCatV1.11B39,2013-02-22 02:30:00,
2013-02-21 18:35:00,48.0,37.6,30.11,North,0,0.0,0.0,67,0.00,,,0.00,WeatherCatV1.11B39,2013-02-22 02:35:00,
2013-02-21 18:40:00,47.5,37.5,30.11,North,0,0.0,0.0,68,0.00,,,0.00,WeatherCatV1.11B39,2013-02-22 02:40:00,
2013-02-21 18:45:00,47.0,37.4,30.11,North,0,0.0,0.0,69,0.00,,,0.00,WeatherCatV1.11B39,2013-02-22 02:45:00,
2013-02-21 18:50:00,46.5,37.6,30.11,North,0,0.0,0.0,71,0.00,,,0.00,WeatherCatV1.11B39,2013-02-22 02:50:00,
2013-02-21 18:55:00,46.1,37.9,30.11,North,0,0.0,0.0,73,0.00,,,0.00,WeatherCatV1.11B39,2013-02-22 02:55:00,
2013-02-21 19:00:00,45.7,37.5,30.11,North,0,0.0,0.0,73,0.00,,,0.00,WeatherCatV1.11B39,2013-02-22 03:00:00,
2013-02-21 19:05:00,45.3,37.5,30.11,North,0,0.0,0.0,74,0.00,,,0.00,WeatherCatV1.11B39,2013-02-22 03:05:00,
2013-02-21 19:10:00,44.9,37.1,30.11,North,0,0.0,0.0,74,0.00,,,0.00,WeatherCatV1.11B39,2013-02-22 03:10:00,
2013-02-21 19:15:00,44.5,36.7,30.11,North,0,0.0,0.0,74,0.00,,,0.00,WeatherCatV1.11B39,2013-02-22 03:15:00,
2013-02-21 19:20:00,44.1,36.7,30.11,North,0,0.0,0.0,75,0.00,,,0.00,WeatherCatV1.11B39,2013-02-22 03:20:00,
2013-02-21 19:25:00,43.9,36.8,30.11,North,0,0.0,0.0,76,0.00,,,0.00,WeatherCatV1.11B39,2013-02-22 03:25:00,
2013-02-21 19:30:00,43.6,36.5,30.11,North,0,0.0,0.0,76,0.00,,,0.00,WeatherCatV1.11B39,2013-02-22 03:30:00,
2013-02-21 19:35:00,43.4,36.7,30.11,North,0,0.0,0.0,77,0.00,,,0.00,WeatherCatV1.11B39,2013-02-22 03:35:00,
2013-02-21 19:40:00,43.2,36.8,30.11,North,0,0.0,0.0,78,0.00,,,0.00,WeatherCatV1.11B39,2013-02-22 03:40:00,
2013-02-21 19:45:00,43.1,37.0,30.12,North,0,0.0,0.0,79,0.00,,,0.00,WeatherCatV1.11B39,2013-02-22 03:45:00,
2013-02-21 19:50:00,42.9,36.8,30.12,North,0,0.0,0.0,79,0.00,,,0.00,WeatherCatV1.11B39,2013-02-22 03:50:00,
2013-02-21 19:55:00,42.7,36.6,30.12,North,0,0.0,0.0,79,0.00,,,0.00,WeatherCatV1.11B39,2013-02-22 03:55:00,
2013-02-21 20:00:00,42.5,36.4,30.12,North,0,0.0,0.0,79,0.00,,,0.00,WeatherCatV1.11B39,2013-02-22 04:00:00,
2013-02-21 20:05:00,42.3,36.6,30.11,North,0,0.0,0.0,80,0.00,,,0.00,WeatherCatV1.11B39,2013-02-22 04:05:00,
2013-02-21 20:10:00,42.0,36.3,30.12,North,0,0.0,0.0,80,0.00,,,0.00,WeatherCatV1.11B39,2013-02-22 04:10:00,
2013-02-21 20:15:00,41.8,36.4,30.12,North,0,0.0,0.0,81,0.00,,,0.00,WeatherCatV1.11B39,2013-02-22 04:15:00,
2013-02-21 20:20:00,41.6,36.2,30.12,North,0,0.0,0.0,81,0.00,,,0.00,WeatherCatV1.11B39,2013-02-22 04:20:00,
2013-02-21 20:25:00,41.4,36.0,30.12,North,0,0.0,0.0,81,0.00,,,0.00,WeatherCatV1.11B39,2013-02-22 04:25:00,
2013-02-21 20:30:00,41.2,35.8,30.12,North,0,0.0,0.0,81,0.00,,,0.00,WeatherCatV1.11B39,2013-02-22 04:30:00,
2013-02-21 20:35:00,40.9,35.5,30.12,North,0,0.0,0.0,81,0.00,,,0.00,WeatherCatV1.11B39,2013-02-22 04:35:00,
2013-02-21 20:40:00,40.6,35.2,30.12,North,0,0.0,0.0,81,0.00,,,0.00,WeatherCatV1.11B39,2013-02-22 04:40:00,
2013-02-21 20:45:00,40.4,35.3,30.12,North,0,0.0,0.0,82,0.00,,,0.00,WeatherCatV1.11B39,2013-02-22 04:45:00,
2013-02-21 20:50:00,40.2,35.2,30.13,North,0,0.0,0.0,82,0.00,,,0.00,WeatherCatV1.11B39,2013-02-22 04:50:00,
2013-02-21 20:55:00,40.0,35.0,30.13,North,0,0.0,0.0,82,0.00,,,0.00,WeatherCatV1.11B39,2013-02-22 04:55:00,
2013-02-21 21:00:00,39.8,35.1,30.13,North,0,0.0,0.0,83,0.00,,,0.00,WeatherCatV1.11B39,2013-02-22 05:00:00,
2013-02-21 21:05:00,39.7,35.0,30.13,North,0,0.0,0.0,83,0.00,,,0.00,WeatherCatV1.11B39,2013-02-22 05:05:00,
2013-02-21 21:10:00,39.6,35.2,30.13,North,0,0.0,0.0,84,0.00,,,0.00,WeatherCatV1.11B39,2013-02-22 05:10:00,
2013-02-21 21:15:00,39.6,35.2,30.14,North,0,0.0,0.0,84,0.00,,,0.00,WeatherCatV1.11B39,2013-02-22 05:15:00,
2013-02-21 21:20:00,39.8,36.0,30.14,North,0,0.0,0.0,86,0.00,,,0.00,WeatherCatV1.11B39,2013-02-22 05:20:00,
2013-02-21 21:25:00,40.0,36.4,30.14,North,0,0.0,0.0,87,0.00,,,0.00,WeatherCatV1.11B39,2013-02-22 05:25:00,
2013-02-21 21:30:00,40.2,36.9,30.14,North,0,0.0,0.0,88,0.00,,,0.00,WeatherCatV1.11B39,2013-02-22 05:30:00,
2013-02-21 21:35:00,40.5,37.2,30.14,North,0,0.0,0.0,88,0.00,,,0.00,WeatherCatV1.11B39,2013-02-22 05:35:00,
2013-02-21 21:40:00,40.7,37.4,30.14,North,0,0.0,0.0,88,0.00,,,0.00,WeatherCatV1.11B39,2013-02-22 05:40:00,
2013-02-21 21:45:00,40.9,37.6,30.14,North,0,0.0,0.0,88,0.00,,,0.00,WeatherCatV1.11B39,2013-02-22 05:45:00,
2013-02-21 21:50:00,41.2,38.2,30.14,North,0,0.0,0.0,89,0.00,,,0.00,WeatherCatV1.11B39,2013-02-22 05:50:00,
2013-02-21 21:55:00,41.5,38.5,30.14,North,0,0.0,0.0,89,0.00,,,0.00,WeatherCatV1.11B39,2013-02-22 05:55:00,
2013-02-21 22:00:00,41.7,38.7,30.14,North,0,0.0,0.0,89,0.00,,,0.00,WeatherCatV1.11B39,2013-02-22 06:00:00,
2013-02-21 22:05:00,41.9,38.6,30.14,North,0,0.0,0.0,88,0.00,,,0.00,WeatherCatV1.11B39,2013-02-22 06:05:00,
2013-02-21 22:10:00,42.0,38.7,30.14,North,0,0.0,0.0,88,0.00,,,0.00,WeatherCatV1.11B39,2013-02-22 06:10:00,
2013-02-21 22:15:00,42.3,39.3,30.14,North,0,0.0,0.0,89,0.00,,,0.00,WeatherCatV1.11B39,2013-02-22 06:15:00,
2013-02-21 22:20:00,42.4,39.4,30.14,North,0,0.0,0.0,89,0.00,,,0.00,WeatherCatV1.11B39,2013-02-22 06:20:00,
2013-02-21 22:25:00,42.4,39.4,30.14,North,0,0.0,0.0,89,0.00,,,0.00,WeatherCatV1.11B39,2013-02-22 06:25:00,
2013-02-21 22:30:00,42.4,39.4,30.15,North,0,0.0,0.0,89,0.00,,,0.00,WeatherCatV1.11B39,2013-02-22 06:30:00,
2013-02-21 22:35:00,42.4,39.4,30.15,North,0,0.0,0.0,89,0.00,,,0.00,WeatherCatV1.11B39,2013-02-22 06:35:00,
2013-02-21 22:40:00,42.3,39.3,30.15,North,0,0.0,0.0,89,0.00,,,0.00,WeatherCatV1.11B39,2013-02-22 06:40:00,
2013-02-21 22:45:00,42.2,39.2,30.15,North,0,0.0,0.0,89,0.00,,,0.00,WeatherCatV1.11B39,2013-02-22 06:45:00,
2013-02-21 22:50:00,42.2,39.2,30.15,North,0,0.0,0.0,89,0.00,,,0.00,WeatherCatV1.11B39,2013-02-22 06:50:00,
2013-02-21 22:55:00,42.1,39.1,30.15,North,0,0.0,0.0,89,0.00,,,0.00,WeatherCatV1.11B39,2013-02-22 06:55:00,
2013-02-21 23:00:00,42.1,39.4,30.15,North,0,0.0,0.0,90,0.00,,,0.00,WeatherCatV1.11B39,2013-02-22 07:00:00,
2013-02-21 23:05:00,42.1,39.4,30.15,North,0,0.0,0.0,90,0.00,,,0.00,WeatherCatV1.11B39,2013-02-22 07:05:00,
2013-02-21 23:10:00,42.1,39.4,30.15,North,0,0.0,0.0,90,0.00,,,0.00,WeatherCatV1.11B39,2013-02-22 07:10:00,
2013-02-21 23:15:00,42.0,39.0,30.15,North,0,0.0,0.0,89,0.00,,,0.00,WeatherCatV1.11B39,2013-02-22 07:15:00,
2013-02-21 23:20:00,42.0,39.0,30.15,North,0,0.0,0.0,89,0.00,,,0.00,WeatherCatV1.11B39,2013-02-22 07:20:00,
2013-02-21 23:25:00,42.0,39.0,30.15,North,0,0.0,0.0,89,0.00,,,0.00,WeatherCatV1.11B39,2013-02-22 07:25:00,
2013-02-21 23:30:00,42.0,39.0,30.15,North,0,0.0,0.0,89,0.00,,,0.00,WeatherCatV1.11B39,2013-02-22 07:30:00,
2013-02-21 23:35:00,42.0,39.0,30.16,North,0,0.0,0.0,89,0.00,,,0.00,WeatherCatV1.11B39,2013-02-22 07:35:00,
2013-02-21 23:40:00,42.0,39.0,30.15,North,0,0.0,0.0,89,0.00,,,0.00,WeatherCatV1.11B39,2013-02-22 07:40:00,
2013-02-21 23:45:00,42.0,39.0,30.16,North,0,0.0,0.0,89,0.00,,,0.00,WeatherCatV1.11B39,2013-02-22 07:45:00,
2013-02-21 23:50:00,42.0,39.0,30.16,North,0,0.0,0.0,89,0.00,,,0.00,WeatherCatV1.11B39,2013-02-22 07:50:00,
2013-02-21 23:55:00,41.9,38.9,30.16,North,0,0.0,0.0,89,0.00,,,0.00,WeatherCatV1.11B39,2013-02-22 07:55:00,